AO-07 1 07530U 74089B 18025.88532916 -.00000020 00000-0 15432-3 0 9992 2 07530 101.6667 355.4582 0011783 250.8687 165.1516 12.53630909976760 UO-11 1 14781U 84021B 18025.56557701 .00000072 00000-0 15036-4 0 9996 2 14781 097.6690 067.7148 0008421 181.2152 178.9043 14.82975807802304 LO-19 1 20442U 90005G 18025.41242080 -.00000009 00000-0 12832-4 0 9993 2 20442 98.5978 324.8851 0011164 207.0577 153.0026 14.32884881463447 HUBBLE 1 20580U 90037B 18025.27087208 .00000494 00000-0 19364-4 0 9998 2 20580 028.4707 339.8161 0002821 047.4346 101.0564 15.08968647323770 MET-2/21 1 22782U 93055A 18025.57683279 .00000034 00000-0 16765-4 0 9992 2 22782 82.5473 207.0944 0022631 164.2784 255.3255 13.83806186232451 AO-27 1 22825U 93061C 18025.90494738 .00000007 00000-0 20488-4 0 9991 2 22825 98.8445 359.5832 0009196 46.6064 313.5882 14.30020142269234 IO-26 1 22826U 93061D 18025.53495535 .00000010 00000-0 21372-4 0 9994 2 22826 098.8386 359.2629 0009613 038.0143 322.1715 14.30350828269369 FO-29 1 24278U 96046B 18025.59099862 -.00000016 00000-0 16208-4 0 9991 2 24278 098.5303 243.8839 0351274 120.7798 242.8421 13.53080906058704 NOAA-15 1 25338U 98030A 18025.59890122 .00000026 00000-0 29664-4 0 9992 2 25338 098.7766 041.8828 0009544 282.5433 077.4678 14.25836487024447 GO-32 1 25397U 98043D 18025.42905291 -.00000010 00000-0 14699-4 0 9993 2 25397 98.6359 328.3419 0002397 80.4577 279.6872 14.23638523 15419 ISS 1 25544U 98067A 18025.47687269 .00002230 00000-0 40800-4 0 9998 2 25544 051.6432 010.1447 0003696 047.3752 096.7332 15.54213531096322 NO-44 1 26931U 01043C 18025.58544930 -.00000020 00000-0 23999-4 0 9992 2 26931 067.0494 237.3642 0005366 278.9745 081.0748 14.30491826852081 SO-50 1 27607U 02058C 18025.60273593 -.00000007 00000-0 19645-4 0 9995 2 27607 064.5549 165.8474 0047937 003.6347 356.5094 14.75414573811794 CO-55 1 27844U 03031E 18025.55356131 .00000057 00000-0 45380-4 0 9993 2 27844 98.6887 36.3026 0010734 67.1615 293.0695 14.22090617755928 CO-57 1 27848U 03031J 18025.47333687 .00000039 00000-0 37567-4 0 9997 2 27848 098.6976 036.5716 0010709 076.4148 283.8222 14.21697772755753 RS-22 1 27939U 03042A 18025.88080961 .00000073 00000-0 21646-4 0 9998 2 27939 97.9673 168.8871 0011916 236.3872 275.0627 14.66651565765957 NOAA-18 1 28654U 05018A 18025.57223150 .00000008 00000-0 29478-4 0 9992 2 28654 099.1629 057.9986 0014697 164.7391 195.4226 14.12364676653558 CO-58 1 28895U 05043F 18025.38493299 .00000140 00000-0 35592-4 0 9990 2 28895 097.8872 182.8008 0017412 157.0641 203.1343 14.63501554652756 Falconsat-3 1 30776U 07006E 18025.56253934 .00002773 00000-0 84296-4 0 9991 2 30776 035.4362 094.2269 0003246 196.5306 163.5314 15.33808945602406 CO-65 1 32785U 08021C 18025.83128783 .00000202 00000-0 27527-4 0 9993 2 32785 97.5535 44.7646 0013972 145.2840 214.9292 14.88051167528003 AAUSAT2 1 32788U 08021F 18025.58957570 .00000229 00000-0 26415-4 0 9996 2 32788 097.5368 057.9347 0013402 105.1003 255.1702 14.94199902528783 DO-64 1 32789U 08021G 18025.71435841 .00001387 00000-0 99954-4 0 9998 2 32789 97.5317 84.0212 0013713 67.5552 292.7126 15.05698029530344 CO-66 1 32791U 08021J 18025.54645669 .00000392 00000-0 45540-4 0 9990 2 32791 97.5462 49.5057 0014602 129.8138 230.4368 14.90452388528265 RS-30 1 32953U 08025A 18025.66236859 .00000003 00000-0 -47296-4 0 9994 2 32953 82.5031 101.3256 0019970 158.3649 201.8279 12.43081120439066 PRISM 1 33493U 09002B 18025.64750485 .00000465 00000-0 46953-4 0 9994 2 33493 98.1440 282.1626 0016619 69.1478 291.1535 14.96047272489037 NOAA-19 1 33591U 09005A 18025.59556123 .00000083 00000-0 70265-4 0 9992 2 33591 099.1245 000.9273 0014233 011.2684 348.8803 14.12248859461783 TISAT-1 1 36799U 10035E 18025.34828311 .00000268 00000-0 33434-4 0 9996 2 36799 98.0853 157.9848 0011400 322.1745 37.8670 14.90676166408875 JUGNU 1 37839U 11058B 18025.58652558 .00000308 00000-0 22151-4 0 9991 2 37839 019.9598 181.9448 0018939 114.7101 316.4298 14.12607379325073 SRMSAT 1 37841U 11058D 18025.60848959 .00000303 00000-0 21304-4 0 9993 2 37841 019.9706 228.0786 0011833 004.5379 041.0877 14.10596913324638 AO-71 1 37854U 11061E 18025.50165868 .00000892 00000-0 54686-4 0 9993 2 37854 101.7112 017.3725 0164883 136.4713 224.9648 15.05030023339911 HRBE 1 37855U 11061F 18025.53128146 .00000801 00000-0 49192-4 0 9991 2 37855 101.7229 015.0694 0177874 144.2625 217.0645 15.03999212339736 ALMASAT-1 1 38078U 12006B 18025.51715756 .00020700 38693-5 19839-3 0 9994 2 38078 69.4341 249.2867 0268437 320.2644 113.3035 15.33651966318737 HORYU-2 1 38340U 12025D 18025.59897188 .00000196 00000-0 36906-4 0 9993 2 38340 098.3746 042.3619 0010596 308.5028 051.5229 14.75489011295672 RS-40 1 38735U 12041C 18025.51814132 .00000035 00000-0 18670-3 0 9998 2 38735 082.4755 185.5632 0016275 263.5807 096.3419 12.42576300249288 BEESAT-3 1 39134U 13015E 18025.32977504 .00001273 00000-0 70153-4 0 9996 2 39134 064.8624 228.8819 0028469 229.4561 130.4086 15.18743106262826 BEESAT-2 1 39136U 13015G 18025.37101780 .00000885 00000-0 55944-4 0 9997 2 39136 064.8683 242.6864 0029841 252.7299 107.0560 15.15820930262554 ZACUBE-1 1 39417U 13066B 18025.67876829 .00000199 00000-0 31762-4 0 9991 2 39417 97.6041 61.8056 0057734 261.6513 97.8152 14.80864990225706 TRITON-1 1 39427U 13066M 18025.53540416 .00000196 00000-0 39346-4 0 9990 2 39427 097.6370 030.9645 0114064 357.1703 002.8843 14.67602259223462 GOMX-1 1 39430U 13066Q 18025.86536980 .00000258 00000-0 55411-4 0 9991 2 39430 97.6824 13.1223 0152935 60.1123 301.5173 14.59011296222405 LO-74 1 39440U 13066AA 18025.60662793 .00000199 00000-0 35098-4 0 9999 2 39440 097.6107 049.2510 0079290 299.0363 060.2920 14.75602622223698 AO-73 1 39444U 13066AE 18025.61368345 .00000243 00000-0 36691-4 0 9990 2 39444 097.6055 063.0868 0056939 257.6670 101.8166 14.81628214223955 SPROUT 1 39770U 14029E 18025.84603629 .00000548 00000-0 67850-4 0 9993 2 39770 97.8744 128.1517 0008085 324.6768 35.3919 14.86642849199213 DUCHIFAT-1 1 40021U 14033M 18025.71274703 .00000487 00000-0 56207-4 0 9998 2 40021 97.9178 304.1757 0011756 291.2887 68.7075 14.90179466195739 NANOSATCBR1 1 40024U 14033Q 18025.75137107 .00000280 00000-0 35391-4 0 9993 2 40024 97.9124 302.7282 0011013 293.2138 66.7919 14.89461323195679 EO-79 1 40025U 14033R 18025.71833468 .00000263 00000-0 34222-4 0 9996 2 40025 97.9093 301.3851 0011305 297.2592 62.7472 14.88623266195590 DTUSAT-2 1 40030U 14033W 18025.71335162 .00000252 00000-0 33420-4 0 9997 2 40030 97.9047 300.2509 0010687 291.8014 68.2065 14.88237192195547 EO-80 1 40032U 14033Y 18025.29454626 .00000260 00000-0 34295-4 0 9999 2 40032 97.9055 299.8375 0010641 293.8768 66.1333 14.88172906195478 ANTELSAT 1 40034U 14033AA 18025.56964539 .00000189 00000-0 35945-4 0 9993 2 40034 097.8311 267.2398 0057788 298.1229 061.4147 14.73852114193144 VELOX-1 1 40057U 14034E 18025.53794415 .00000303 00000-0 50229-4 0 9990 2 40057 98.1940 134.2335 0012390 69.0672 291.1869 14.77329752192583 DAURIA DX 1 1 40071U 14037C 18025.87556681 .00000101 00000-0 20479-4 0 9997 2 40071 98.3557 151.0777 0009807 61.6076 298.6131 14.81115759191934 UKUBE-1 1 40074U 14037F 18025.79160130 .00000248 00000-0 37142-4 0 9998 2 40074 98.3674 156.0540 0005854 62.9565 297.2260 14.83705354192189 HODOYOSHI-1 1 40299U 14070B 18025.80385662 .00000663 00000-0 31397-4 0 9992 2 40299 97.3881 110.0481 0014456 37.5567 76.8054 15.22704669178817 CHUBUSAT-1 1 40300U 14070C 18025.83736885 .00000619 00000-0 30578-4 0 9996 2 40300 97.3773 106.5066 0021750 45.0218 63.7581 15.21357100178634 QSAT-EOS 1 40301U 14070D 18025.49986418 .00001488 00000-0 63244-4 0 9999 2 40301 97.3712 106.9245 0028161 38.2897 81.9143 15.24269563178680 FIREBIRD FU3 1 40377U 15003B 18025.83926144 .00002075 00000-0 89384-4 0 9993 2 40377 99.1044 259.2846 0132682 344.2885 15.4243 15.16623496164746 FIREBIRD FU4 1 40378U 15003C 18025.82909633 .00001933 00000-0 83507-4 0 9990 2 40378 99.1046 259.3231 0132888 344.2144 15.4959 15.16635637164748 GRIFEX 1 40379U 15003D 18025.59908375 .00001324 00000-0 62383-4 0 9990 2 40379 099.1084 255.8615 0139650 355.5023 004.4938 15.13894299164511 NO-84 1 40654U 15025D 18024.28343977 .00008529 00000-0 14489-3 0 02042 2 40654 054.9932 325.1712 0169597 103.9919 258.0031 15.38020506033682 NO-83 1 40655U 15025E 18024.22295903 .00017455 00000-0 21158-3 0 02333 2 40655 054.9768 283.5785 0127258 127.8182 233.4453 15.51572679033898 DEORBITSAIL 1 40719U 15032E 18025.58697815 .00000370 00000-0 60608-4 0 9991 2 40719 097.9603 281.2994 0017038 143.4858 216.7517 14.76313207137132 NUDT-PHONESAT 1 40900U 15049B 18025.54596822 .00001928 00000-0 90658-4 0 9991 2 40900 097.4430 035.4987 0014126 162.0190 198.1548 15.20703597130235 XW-2A 1 40903U 15049E 18025.83116507 .00001721 00000-0 45272-4 0 9997 2 40903 97.4012 59.1836 0014422 177.0705 183.0628 15.39930204131899 XW-2C 1 40906U 15049H 18025.59609344 .00000609 00000-0 36085-4 0 9995 2 40906 097.4582 031.7377 0015652 158.4911 201.6982 15.14987708129901 XW-2D 1 40907U 15049J 18025.82621539 .00000644 00000-0 37826-4 0 9995 2 40907 97.4554 31.6798 0015090 155.4789 204.7164 15.15124083129943 LILACSAT-2 1 40908U 15049K 18025.59909699 .00000318 00000-0 21407-4 0 9992 2 40908 097.4661 030.9942 0016665 157.2302 202.9672 15.13389872129802 XW-2F 1 40910U 15049M 18025.81610660 .00000948 00000-0 52365-4 0 9993 2 40910 97.4564 32.7295 0015923 152.4474 207.7607 15.16217045129874 XW-2B 1 40911U 15049N 18025.57453747 .00000636 00000-0 37412-4 0 9998 2 40911 097.4593 031.9139 0014971 156.7858 203.4054 15.15073441129801 DCBB 1 40912U 15049P 18025.56594465 .00001171 00000-0 60062-4 0 9993 2 40912 097.4514 034.9429 0016427 142.1408 334.0364 15.18396787130023 TW-1C 1 40926U 15051B 18025.85152156 .00006903 00000-0 13926-3 0 9994 2 40926 97.2030 68.9395 0012649 80.0771 4.9241 15.46766339131295 TW-1A 1 40928U 15051D 18025.49532698 .00003105 00000-0 85401-4 0 9998 2 40928 097.2031 062.2453 0013963 113.0372 023.5696 15.37846044130847 IO-86 1 40931U 15052B 18024.72803309 .00000650 00000-0 15172-5 0 9999 2 40931 6.0007 93.1295 0013110 137.4277 222.6821 14.76562173125764 LQSat 1 40958U 15057A 18025.85507409 .00000009 00000-0 91368-5 0 9999 2 40958 97.9562 102.0247 0019756 74.5210 285.8168 14.73012938123898 AO-85 1 40967U 15058D 18024.12156179 .00000172 00000-0 37609-4 0 02163 2 40967 064.7742 268.5686 0191659 359.6098 000.4832 14.75627283032399 ATHENOXAT-1 1 41168U 15077C 18025.18169910 .00001974 00000-0 72229-4 0 9998 2 41168 14.9853 346.6508 0011994 214.1150 170.7251 15.12402431116691 ChubuSat-2 1 41338U 16012B 18025.63724462 .00000329 00000-0 19041-4 0 9992 2 41338 31.0030 139.2824 0013749 101.5379 258.6801 14.99909235106410 ChubuSat-3 1 41339U 16012C 18025.66903882 .00000346 00000-0 20258-4 0 9992 2 41339 31.0069 137.8818 0013404 108.8116 251.3971 15.00101444106403 Horyu-4 1 41340U 16012D 18025.60416022 .00000502 00000-0 31810-4 0 9993 2 41340 031.0050 134.1637 0013966 119.0731 241.1305 15.00867587106454 OUFTI-1 1 41458U 16025C 18025.83671641 .00001310 00000-0 73278-4 0 9994 2 41458 98.1539 80.9777 0170291 264.8434 93.3327 15.04176412 96034 e-st@r-II 1 41459U 16025D 18025.42070284 .00002168 00000-0 11847-3 0 9991 2 41459 098.1559 080.4307 0170974 266.6307 091.5339 15.03956826095966 AAUSAT4 1 41460U 16025E 18025.72606043 .00001777 00000-0 97554-4 0 9999 2 41460 98.1500 81.0547 0161954 262.6519 95.6260 15.05206439 96055 LO-87 1 41557U 16033B 18025.81052109 .00001169 00000-0 45564-4 0 9992 2 41557 97.4467 110.2536 0012514 304.7989 55.2072 15.27939566 92412 NuSat2 1 41558U 16033C 18025.80264875 .00001187 00000-0 46462-4 0 9995 2 41558 97.4495 110.3237 0011949 303.6863 56.3237 15.27771847 92403 Lapan A3 1 41603U 16040E 18025.90614692 .00000166 00000-0 11032-4 0 9992 2 41603 97.4316 89.8590 0014348 24.9320 90.3360 15.19502391 88479 Swayam 1 41607U 16040J 18025.38914967 .00001381 00000-0 63856-4 0 9997 2 41607 97.4330 90.2616 0014495 25.6373 334.5579 15.21773169 88384 Pratham 1 41783U 16059A 18025.59664465 .00000037 00000-0 16526-4 0 9999 2 41783 098.1385 089.3177 0033703 181.1392 178.9739 14.62896334071115 AlSat 1N 1 41789U 16059G 18025.74196522 .00000094 00000-0 26987-4 0 9991 2 41789 98.1382 90.3973 0028477 172.6273 187.5354 14.64121990 71175 ScatSat 1 41790U 16059H 18025.76232508 .00000004 00000-0 12244-4 0 9992 2 41790 98.2813 75.9823 0018580 164.8525 195.3230 14.50858401 70535 TY-1 1 41844U 16066D 18025.83788374 .00001251 00000-0 56351-4 0 9997 2 41844 97.4064 34.7367 0015855 170.0911 313.7289 15.22820637 67211 CAS-2T 1 41845U 16066E 18025.73645498 .00000049 00000-0 18893-4 0 9999 2 41845 98.7630 51.5418 0365221 307.7566 49.1030 14.37855047 63475 Pegasus-1 1 41846U 16066F 18025.61613660 .00000257 00000-0 50644-4 0 9994 2 41846 098.7678 051.0518 0367748 310.0930 046.8547 14.37247008063426 STARS-C 1 41895U 98067KR 18025.84388713 .00186444 23982-4 57727-3 0 9991 2 41895 51.6319 333.6533 0005436 106.0630 254.0975 15.91296900 63018 TO-89 1 41932U 98067KU 18025.27783809 .00024740 00000-0 21969-3 0 9996 2 41932 51.6389 352.6355 0004797 31.9227 328.2060 15.68381081 58288 AOBA-V3LOX3 1 41935U 98067KX 18025.27572642 .00028707 00000-0 23754-3 0 9991 2 41935 051.6380 351.0976 0004337 037.5177 322.6122 15.70014412058405 OSNSAT 1 41939U 98067KZ 18011.28402027 .11925055 12489-4 54124-3 0 9997 2 41939 051.6147 038.9582 0001091 231.1728 128.9202 16.43639489055773 EO-88 1 42017U 17008BX 18025.57019497 .00001409 00000-0 61186-4 0 9998 2 42017 097.4677 091.3782 0007295 149.8407 210.3251 15.23975372052344 HAVELSAT 1 42700U 98067LH 18025.34537032 .00021033 00000-0 22031-3 0 9996 2 42700 51.6386 1.3177 0005770 73.1901 286.9726 15.64354506 39611 SOMP2 1 42701U 98067LJ 18025.90681691 .00019794 00000-0 21203-3 0 9991 2 42701 51.6378 359.0669 0005756 74.8235 285.3396 15.63827827 39687 Columbia 1 42702U 98067LK 18025.88165290 .00180236 00000-0 71916-3 0 9997 2 42702 51.6300 346.7546 0006373 93.3816 266.7917 15.85518505 39773 PHOENIX 1 42706U 98067LP 18025.31961656 .00018392 00000-0 19854-3 0 9995 2 42706 51.6384 1.8990 0001908 50.9728 309.1437 15.63699548 39515 X-CubeSat 1 42707U 98067LQ 18025.28979913 .00022698 00000-0 23657-3 0 9997 2 42707 51.6365 1.6746 0002141 50.9291 309.1894 15.64441612 39501 qbee 1 42708U 98067LR 18025.31058111 .00020709 00000-0 21935-3 0 9998 2 42708 51.6382 1.8239 0002142 50.3104 309.8080 15.64094200 39464 ZA-AeroSat 1 42713U 98067LU 18025.30477744 .00017875 00000-0 20143-3 0 9990 2 42713 51.6378 3.2947 0002543 20.9450 339.1648 15.62614514 39155 LINK 1 42714U 98067LV 18025.30343142 .00034605 00000-0 32154-3 0 9990 2 42714 51.6352 0.2498 0002834 30.9987 329.1176 15.67079215 39305 UPSat 1 42716U 98067LX 18025.32843124 .00029303 00000-0 28511-3 0 9990 2 42716 051.6376 000.4476 0004413 074.0806 286.0676 15.66014095039327 SpaceCube 1 42717U 98067LY 18025.52263469 .00021181 00000-0 22496-3 0 9993 2 42717 51.6374 0.9944 0004415 74.2036 285.9445 15.64003178 38576 Hoopoe 1 42718U 98067LZ 18025.77509114 .00022655 00000-0 23059-3 0 9994 2 42718 51.6380 358.9318 0004367 73.6231 286.5244 15.65038192 38626 Challenger 1 42721U 98067MA 18025.33403039 .00044489 00000-0 38276-3 0 9995 2 42721 51.6361 358.9522 0006592 59.2775 300.8871 15.68831787 38283 NJUST-1 1 42722U 98067MB 18025.80706991 .00016304 00000-0 18830-3 0 9990 2 42722 51.6385 1.4012 0007009 59.5584 300.6102 15.62035718 38299 UNSW-EC0 1 42723U 98067MC 18025.29832021 .00028143 00000-0 28387-3 0 9990 2 42723 51.6391 1.7587 0006638 57.2843 302.8792 15.65117416 38228 DUTHsat 1 42724U 98067MD 18025.44230837 .00039783 00000-0 35211-3 0 9991 2 42724 51.6366 358.9444 0005900 61.2706 298.8883 15.68195428 38197 LO-90 1 42725U 98067ME 18025.81553188 .00019605 00000-0 21563-3 0 9996 2 42725 51.6385 0.7092 0006078 61.8516 298.3092 15.63154652 38200 nSIGHT1 1 42726U 98067MF 18025.30056559 .00008600 00000-0 11402-3 0 9995 2 42726 51.6400 6.2867 0006481 61.8723 298.2924 15.59149895 38096 QBITO 1 42728U 98067MH 18025.49129709 .00021604 00000-0 22964-3 0 9999 2 42728 51.6403 1.5688 0003860 66.0623 294.0775 15.63970814 37976 Aalto-2 1 42729U 98067MJ 18025.55078367 .00022477 00000-0 23775-3 0 9990 2 42729 51.6383 1.1941 0003806 65.1166 295.0225 15.64068359 37990 SUSat 1 42730U 98067MK 18025.32912446 .00021106 00000-0 22839-3 0 9990 2 42730 51.6380 2.7051 0003854 62.5531 297.5855 15.63529887 37946 i-INSPIRE II 1 42731U 98067ML 18025.78296099 .00027787 00000-0 27602-3 0 9994 2 42731 51.6372 358.9618 0006306 18.4058 341.7164 15.65513643 38088 PolyITAN-2-SAU 1 42732U 98067MM 18025.34310756 .00024953 00000-0 26102-3 0 9990 2 42732 51.6379 2.0349 0006425 14.2577 345.8598 15.64269419 38002 SNUSAT-1 1 42733U 98067MN 18025.33047244 .00021242 00000-0 22984-3 0 9991 2 42733 51.6380 2.7052 0006560 15.9006 344.2193 15.63513706 37999 ExAlta-1 1 42734U 98067MP 18025.53326370 .00029298 00000-0 29062-3 0 9997 2 42734 51.6363 0.2937 0007818 37.8208 322.3336 15.65505930 37998 Aoxiang-1 1 42735U 98067MQ 18025.85765238 .00016273 00000-0 18671-3 0 9996 2 42735 51.6377 0.9783 0007475 57.2737 302.8977 15.62206181 39430 BeEagleSat 1 42736U 98067MR 18025.56281402 .00019011 00000-0 21131-3 0 9999 2 42736 051.6377 002.0071 0007375 055.0607 305.1080 15.62899146038085 Atlantis 1 42737U 98067MS 18025.72958367 .00115693 00000-0 61556-3 0 9997 2 42737 51.6291 351.0029 0006840 68.9090 291.2642 15.79573455 38131 CAS-4B 1 42759U 17034B 18025.78619971 .00000270 00000-0 30318-4 0 9994 2 42759 43.0175 144.9491 0009582 293.7855 196.3415 15.09173705 33939 CAS-4A 1 42761U 17034D 18025.71326876 .00000170 00000-0 24075-4 0 9991 2 42761 43.0176 145.2104 0009920 294.9323 218.9327 15.09248400 33913 UCLSat 1 42765U 17036A 18025.11512391 .00001128 00000-0 53222-4 0 9990 2 42765 97.4218 87.1488 0011121 211.3863 148.6710 15.21458000 32955 NIUSat 1 42766U 17036B 18025.56431731 .00000928 00000-0 46069-4 0 9996 2 42766 097.4220 087.1694 0015674 197.4821 162.5877 15.20077032032863 LituanicaSAT 2 1 42768U 17036D 18025.44544967 .00002032 00000-0 95211-4 0 9992 2 42768 097.4226 087.1779 0015569 200.5928 159.4682 15.20757399032862 Aalto 1 1 42775U 17036L 18025.17041864 .00000741 00000-0 37006-4 0 9991 2 42775 097.4216 086.9243 0013781 199.0028 161.0695 15.20480912032765 URSA MAIOR 1 42776U 17036M 18025.36096055 .00000837 00000-0 41337-4 0 9993 2 42776 097.4219 087.1368 0013677 198.3314 161.7430 15.20545362032792 Max Valier Sat 1 42778U 17036P 18025.17075818 .00000832 00000-0 40598-4 0 9991 2 42778 097.4240 087.1321 0012176 204.0309 156.0359 15.20994871032766 Pegasus 1 42784U 17036V 18025.39885828 .00001292 00000-0 60794-4 0 9993 2 42784 097.4219 087.3876 0011667 210.3787 149.6774 15.21293884032801 NUDATSat 1 42787U 17036Y 18025.88940274 .00001600 00000-0 73690-4 0 9999 2 42787 97.4223 87.9562 0011339 208.3934 151.6685 15.21710853 32729 SUCHAI 1 1 42788U 17036Z 18025.11522433 .00001224 00000-0 57452-4 0 9999 2 42788 97.4220 87.1535 0011281 211.3704 148.6860 15.21499717 32830 SKCUBE 1 42789U 17036AA 18025.11249955 .00001141 00000-0 53780-4 0 9993 2 42789 097.4219 087.1541 0011127 211.4326 148.6246 15.21491009032751 VZLUSAT 1 1 42790U 17036AB 18025.35514687 .00001627 00000-0 74829-4 0 9994 2 42790 097.4220 087.4374 0010840 210.4865 149.5742 15.21740409032796 VENTA 1 1 42791U 17036AC 18025.49443193 .00001207 00000-0 56572-4 0 9992 2 42791 097.4218 087.5584 0010744 210.3269 149.7347 15.21562440032800 Robusta 1B 1 42792U 17036AD 18025.48873048 .00001241 00000-0 57987-4 0 9997 2 42792 097.4216 087.5604 0010693 210.7096 149.3515 15.21627524032827 D-SAT 1 42794U 17036AF 18025.61775902 .00000232 00000-0 25664-4 0 9990 2 42794 097.6134 085.5062 0128168 037.1368 323.8632 14.90768788032480 BIRD-J 1 42820U 98067MU 18025.29940314 .00018346 00000-0 21058-3 0 9995 2 42820 51.6379 4.7494 0003046 6.6564 353.4470 15.62115259 31486 BIRD-G 1 42821U 98067MV 18025.31677743 .00017229 00000-0 20015-3 0 9993 2 42821 051.6378 004.8658 0003095 009.8120 350.2934 15.61854298031488 BIRD-M 1 42822U 98067MW 18025.18529363 .00014967 00000-0 17411-3 0 9995 2 42822 051.6379 005.4895 0003131 011.5487 348.5578 15.61944026031468 BIRD-B 1 42823U 98067MX 18025.31472563 .00018379 00000-0 21202-3 0 9994 2 42823 51.6385 4.8627 0006196 21.2346 338.8904 15.61970841 31467 BIRD-N 1 42824U 98067MY 18025.32509140 .00018296 00000-0 21203-3 0 9997 2 42824 051.6391 004.9392 0006090 022.2790 337.8467 15.61855969031480 TechnoSat 1 42829U 17042E 18025.86812576 .00000180 00000-0 23818-4 0 9993 2 42829 97.6076 293.4875 0013270 317.8428 42.1769 14.90758881 29131 Mayak 1 42830U 17042F 18025.84544079 .00000579 00000-0 63852-4 0 9997 2 42830 97.6083 293.5329 0013544 315.4818 44.5311 14.91083909 29128 OBJECT MZ 1 42910U 98067MZ 18025.47406106 .00014301 00000-0 17870-3 0 9995 2 42910 51.6372 5.9040 0007266 40.2855 319.8675 15.60091603 25079 OBJECT NA 1 42911U 98067NA 18025.90445920 .00015235 00000-0 18686-3 0 9994 2 42911 51.6383 3.5532 0006853 37.9078 322.2397 15.60524729 25128 OBJECT NB 1 42912U 98067NB 18025.86628503 .00015224 00000-0 18919-3 0 9997 2 42912 51.6380 4.0131 0006371 49.5931 310.5617 15.60181625 25139 OBJECT NC 1 42913U 98067NC 18025.51228989 .00025953 00000-0 28139-3 0 9999 2 42913 51.6370 3.9102 0005502 56.2589 303.8930 15.63336249 25066 OBJECT ND 1 42914U 98067ND 18025.56313011 .00014070 00000-0 17750-3 0 9991 2 42914 051.6385 005.7699 0006214 043.0621 317.0857 15.59861366025058 QIKCOM-1 1 42983U 98067NF 18025.81039701 .00003046 00000-0 51258-4 0 9999 2 42983 51.6436 8.0258 0004918 40.0024 33.0224 15.55218293 14053 AO-91 1 43017U 17073E 18025.36293553 .00001055 00000-0 88225-4 0 9995 2 43017 097.6982 322.5474 0261005 016.8317 344.1353 14.77860204010019 EcAMSat 1 43019U 98067NG 18025.34577076 .00005197 00000-0 81558-4 0 9995 2 43019 51.6408 10.3299 0005361 9.3797 350.7294 15.55516005 96308 PICSAT 1 43131U 18004W 18025.61534212 .00001705 00000-0 77267-4 0 9991 2 43131 097.5540 087.7986 0008801 230.9173 129.1280 15.22241577002024 AO-92 1 43137U 18004AC 18025.61399248 .00000954 00000-0 44440-4 0 9997 2 43137 097.5541 087.8006 0008315 233.4771 126.5699 15.22384822002023 /EX